When you browse on this site, cookies collect data to enhance your experience and personalize the content and advertising you see.
Visit our Privacy Policy to learn more. By continuing to use the site, you agree to this use of cookies and data.
  • In Hungary
  • List of Countries
  • For 7 days
  • Water Temperature
  • Satellite Maps
  • Weather Map
  • News
  • Weather Widgets
  • user-avatar
    Login

    Hourly Weather Lawrenceville

    Today, 21 February, Thursday

    Time Temperature Precipitation Wind Pressure Humidity
    00:00 +2°C° 0 mm 3 mps 735 mmHg 78%
    01:00 +4°C° 0.8 mm 2 mps 735 mmHg 81%
    02:00 +5°C° 0.8 mm 1 mps 734 mmHg 84%
    03:00 +6°C° 0.8 mm 1 mps 734 mmHg 88%
    04:00 +6°C° 0.6 mm 1 mps 734 mmHg 90%
    05:00 +6°C° 0.6 mm 0 mps 735 mmHg 92%
    06:00 +6°C° 0.6 mm 0 mps 735 mmHg 95%
    07:00 +8°C° 0.2 mm 0 mps 735 mmHg 96%
    08:00 +9°C° 0.2 mm 0 mps 735 mmHg 97%
    09:00 +10°C° 0.2 mm 0 mps 736 mmHg 97%
    10:00 +13°C° 0 mm 0 mps 736 mmHg 93%
    11:00 +16°C° 0 mm 1 mps 736 mmHg 89%
    12:00 +19°C° 0 mm 1 mps 736 mmHg 85%
    13:00 +20°C° 0 mm 1 mps 736 mmHg 83%
    14:00 +21°C° 0 mm 1 mps 736 mmHg 81%
    15:00 +22°C° 0 mm 1 mps 735 mmHg 79%
    16:00 +21°C° 0.3 mm 1 mps 736 mmHg 84%
    17:00 +20°C° 0.3 mm 1 mps 736 mmHg 88%
    18:00 +19°C° 0.3 mm 1 mps 736 mmHg 93%
    19:00 +19°C° 0.4 mm 1 mps 736 mmHg 95%
    20:00 +18°C° 0.4 mm 1 mps 736 mmHg 96%
    21:00 +18°C° 0.4 mm 1 mps 737 mmHg 98%
    22:00 +18°C° 0.4 mm 1 mps 737 mmHg 98%
    23:00 +18°C° 0.4 mm 1 mps 737 mmHg 98%

    Tomorrow, 22 February, Friday

    Time Temperature Precipitation Wind Pressure Humidity
    00:00 +18°C° 0.4 mm 1 mps 737 mmHg 99%
    01:00 +18°C° 0.2 mm 1 mps 737 mmHg 99%
    02:00 +18°C° 0.2 mm 1 mps 737 mmHg 99%
    03:00 +18°C° 0.2 mm 1 mps 737 mmHg 99%
    04:00 +18°C° 0.7 mm 1 mps 737 mmHg 99%
    05:00 +18°C° 0.7 mm 1 mps 737 mmHg 99%
    06:00 +16°C° 0.7 mm 0 mps 737 mmHg 99%
    07:00 +16°C° 0.8 mm 0 mps 738 mmHg 99%
    08:00 +18°C° 0.8 mm 1 mps 738 mmHg 99%
    09:00 +18°C° 0.8 mm 1 mps 738 mmHg 99%
    10:00 +19°C° 0.9 mm 1 mps 739 mmHg 97%
    11:00 +18°C° 0.9 mm 2 mps 739 mmHg 95%
    12:00 +19°C° 0.9 mm 2 mps 739 mmHg 93%
    13:00 +18°C° 0.7 mm 2 mps 738 mmHg 93%
    14:00 +17°C° 0.7 mm 3 mps 738 mmHg 93%
    15:00 +16°C° 0.7 mm 3 mps 738 mmHg 93%
    16:00 +14°C° 0.2 mm 3 mps 738 mmHg 93%
    17:00 +13°C° 0.2 mm 4 mps 738 mmHg 92%
    18:00 +12°C° 0.2 mm 4 mps 738 mmHg 91%
    19:00 +12°C° 0.1 mm 4 mps 739 mmHg 92%
    20:00 +11°C° 0.1 mm 4 mps 739 mmHg 92%
    21:00 +11°C° 0.1 mm 4 mps 739 mmHg 92%
    22:00 +11°C° 0.1 mm 4 mps 739 mmHg 92%
    23:00 +11°C° 0.1 mm 4 mps 739 mmHg 92%

    Day after tomorrow, 23 February, Saturday

    Time Temperature Precipitation Wind Pressure Humidity
    00:00 +11°C° 0.1 mm 4 mps 739 mmHg 92%
    01:00 +11°C° 0.1 mm 4 mps 739 mmHg 92%
    02:00 +10°C° 0.1 mm 4 mps 738 mmHg 92%
    03:00 +10°C° 0.1 mm 4 mps 738 mmHg 92%
    04:00 +10°C° 0.1 mm 4 mps 738 mmHg 92%
    05:00 +8°C° 0.1 mm 4 mps 738 mmHg 92%
    06:00 +9°C° 0.1 mm 3 mps 738 mmHg 92%
    07:00 +10°C° 0 mm 3 mps 738 mmHg 92%
    08:00 +10°C° 0 mm 3 mps 738 mmHg 92%
    09:00 +10°C° 0 mm 3 mps 738 mmHg 92%
    10:00 +11°C° 0 mm 3 mps 738 mmHg 91%
    11:00 +12°C° 0 mm 3 mps 738 mmHg 91%
    12:00 +13°C° 0 mm 3 mps 737 mmHg 90%
    13:00 +13°C° 0.1 mm 3 mps 736 mmHg 91%
    14:00 +13°C° 0.1 mm 3 mps 735 mmHg 92%
    15:00 +13°C° 0.1 mm 3 mps 734 mmHg 93%
    16:00 +13°C° 0.2 mm 3 mps 734 mmHg 94%
    17:00 +13°C° 0.2 mm 3 mps 734 mmHg 96%
    18:00 +13°C° 0.2 mm 3 mps 734 mmHg 97%
    19:00 +14°C° 1.1 mm 3 mps 734 mmHg 97%
    20:00 +14°C° 1.1 mm 3 mps 734 mmHg 98%
    21:00 +16°C° 1.1 mm 2 mps 734 mmHg 98%
    22:00 +16°C° 0.6 mm 3 mps 733 mmHg 98%
    23:00 +17°C° 0.6 mm 3 mps 733 mmHg 98%

    24 February, Sunday

    Time Temperature Precipitation Wind Pressure Humidity
    00:00 +18°C° 0.6 mm 3 mps 732 mmHg 97%
    01:00 +18°C° 1 mm 4 mps 731 mmHg 96%
    02:00 +19°C° 1 mm 4 mps 731 mmHg 96%
    03:00 +19°C° 1 mm 5 mps 730 mmHg 95%
    04:00 +17°C° 0.9 mm 5 mps 731 mmHg 83%
    05:00 +16°C° 0.9 mm 5 mps 731 mmHg 72%
    06:00 +15°C° 0.9 mm 5 mps 731 mmHg 60%
    07:00 +15°C° 0 mm 6 mps 732 mmHg 59%
    08:00 +14°C° 0 mm 6 mps 733 mmHg 57%
    09:00 +14°C° 0 mm 6 mps 733 mmHg 55%
    10:00 +14°C° 0 mm 6 mps 734 mmHg 52%
    11:00 +15°C° 0 mm 6 mps 734 mmHg 50%
    12:00 +16°C° 0 mm 6 mps 734 mmHg 47%
    13:00 +15°C° 0 mm 6 mps 734 mmHg 47%
    14:00 +15°C° 0 mm 6 mps 734 mmHg 46%
    15:00 +15°C° 0 mm 6 mps 734 mmHg 46%
    16:00 +14°C° 0 mm 5 mps 735 mmHg 50%
    17:00 +13°C° 0 mm 5 mps 735 mmHg 54%
    18:00 +12°C° 0 mm 4 mps 736 mmHg 58%
    19:00 +11°C° 0 mm 4 mps 736 mmHg 58%
    20:00 +10°C° 0 mm 4 mps 737 mmHg 58%
    21:00 +9°C° 0 mm 5 mps 738 mmHg 58%
    22:00 +8°C° 0 mm 5 mps 738 mmHg 56%
    23:00 +7°C° 0 mm 5 mps 738 mmHg 54%

    25 February, Monday

    Time Temperature Precipitation Wind Pressure Humidity
    00:00 +6°C° 0 mm 5 mps 739 mmHg 52%
    01:00 +6°C° 0 mm 4 mps 739 mmHg 50%
    02:00 +5°C° 0 mm 4 mps 739 mmHg 48%
    03:00 +5°C° 0 mm 4 mps 740 mmHg 46%
    04:00 +4°C° 0 mm 4 mps 740 mmHg 47%
    05:00 +4°C° 0 mm 4 mps 741 mmHg 48%
    06:00 +3°C° 0 mm 3 mps 741 mmHg 48%
    07:00 +5°C° 0 mm 3 mps 742 mmHg 43%
    08:00 +7°C° 0 mm 3 mps 742 mmHg 37%
    09:00 +8°C° 0 mm 3 mps 743 mmHg 31%
    10:00 +10°C° 0 mm 3 mps 743 mmHg 28%
    11:00 +12°C° 0 mm 3 mps 743 mmHg 25%
    12:00 +15°C° 0 mm 2 mps 743 mmHg 22%
    13:00 +16°C° 0 mm 2 mps 742 mmHg 22%
    14:00 +16°C° 0 mm 2 mps 742 mmHg 22%
    15:00 +17°C° 0 mm 2 mps 742 mmHg 22%
    16:00 +15°C° 0 mm 1 mps 742 mmHg 26%
    17:00 +13°C° 0 mm 1 mps 742 mmHg 30%
    18:00 +12°C° 0 mm 1 mps 742 mmHg 34%
    19:00 +10°C° 0 mm 0 mps 743 mmHg 37%
    20:00 +9°C° 0 mm 0 mps 743 mmHg 40%
    21:00 +8°C° 0 mm 0 mps 743 mmHg 43%
    22:00 +8°C° 0 mm 0 mps 743 mmHg 45%
    23:00 +8°C° 0 mm 1 mps 743 mmHg 46%

    26 February, Tuesday

    Time Temperature Precipitation Wind Pressure Humidity
    00:00 +8°C° 0 mm 1 mps 743 mmHg 48%
    01:00 +7°C° 0 mm 1 mps 743 mmHg 50%
    02:00 +7°C° 0 mm 1 mps 743 mmHg 53%
    03:00 +5°C° 0 mm 2 mps 743 mmHg 55%
    04:00 +5°C° 0 mm 2 mps 743 mmHg 57%
    05:00 +5°C° 0 mm 2 mps 744 mmHg 59%
    06:00 +4°C° 0 mm 2 mps 744 mmHg 60%
    07:00 +6°C° 0 mm 2 mps 744 mmHg 56%
    08:00 +8°C° 0 mm 2 mps 745 mmHg 52%
    09:00 +10°C° 0 mm 2 mps 745 mmHg 48%
    10:00 +13°C° 0 mm 2 mps 744 mmHg 44%
    11:00 +13°C° 0 mm 3 mps 744 mmHg 39%
    12:00 +16°C° 0 mm 3 mps 743 mmHg 35%
    13:00 +17°C° 0 mm 3 mps 743 mmHg 35%
    14:00 +17°C° 0 mm 3 mps 742 mmHg 35%
    15:00 +18°C° 0 mm 3 mps 741 mmHg 35%
    16:00 +17°C° 0 mm 3 mps 741 mmHg 44%
    17:00 +15°C° 0 mm 2 mps 741 mmHg 52%
    18:00 +14°C° 0 mm 2 mps 741 mmHg 61%
    19:00 +13°C° 0 mm 2 mps 741 mmHg 65%
    20:00 +13°C° 0 mm 2 mps 741 mmHg 70%
    21:00 +12°C° 0 mm 2 mps 741 mmHg 74%
    22:00 +12°C° 0.2 mm 2 mps 741 mmHg 78%
    23:00 +12°C° 0.2 mm 2 mps 740 mmHg 83%
    Show more